User: anonymous   Login
Location: Bijele Vode
(45.2833°N, 16.2000°E)
Time: 04:52:19
(UTC+00:00)
Language:

Spot 2 Rocket - Orbit

View from above orbital plane
View from above orbital plane
View from above satellite
View from above satellite

Ground track
Ground track

The orbit data is extracted from the following two-line orbital elements,

1 20443U 90005H   20337.47034063  .00000059  00000-0  34228-4 0  9996
2 20443  98.5564  38.8450 0010176 196.9044 163.1805 14.38107564616262
Epoch (UTC): 02 December 2020 11:17:17
Eccentricity: 0.0010176
inclination: 98.5564°
perigee height: 757 km
apogee height: 772 km
right ascension of ascending node: 38.8450°
argument of perigee: 196.9044°
revolutions per day: 14.38107564
mean anomaly at epoch: 163.1805°
orbit number at epoch: 61626

The dashed part of the orbit path shows where the satellite is in the earth's shadow,  

DLR